#timestamp,LO_Frequency,Hit,StdDev 
1458810015.0,286047006.0,N
1458810016.0,286047006.0,N
1458810035.8,286047007.0,N
1458810055.6,286047012.7,Y
1458810075.5,286047012.8,P
1458810095.3,286047018.4,P
1458810115.1,286047021.9,P
1458810135.8,286047021.6,N
1458810155.7,286047025.0,Y
1458810175.5,286047004.9,P
1458810195.3,286047004.2,N
1458810215.2,286047007.6,N
1458810235.0,286047007.4,N
1458810235.9,286047007.4,N
1458810255.7,286047003.4,N
1458810275.6,286047002.3,N
1458810295.4,286046998.3,N
1458810315.2,286046998.7,N
1458810335.1,286047000.9,N
1458810336.0,286047000.9,N
1458810355.8,286047000.7,N
1458810375.6,286047002.4,N
1458810395.5,286047002.4,N
1458810415.3,286047000.1,N
1458810435.1,286047002.0,N
1458810455.9,286047001.5,N
1458810475.7,286047002.1,N
1458810495.5,286047001.3,N
1458810515.4,286047002.6,N
1458810535.2,286046996.8,N
1458810555.0,286046993.2,N
1458810555.9,286046993.2,N
1458810575.7,286046987.8,N
1458810595.6,286046984.5,N
1458810615.4,286046982.1,N
1458810635.2,286046980.6,N
1458810655.1,286046979.6,N
1458810656.0,286046979.6,N
1458810675.8,286046978.6,N
1458810695.6,286046978.5,N
1458810715.5,286046976.4,N
1458810735.3,286046976.4,N
1458810755.1,286046977.1,N
1458810775.9,286046976.6,N
1458810795.7,286046974.9,N
1458810815.5,286046976.8,N
1458810835.4,286046976.3,N
1458810855.2,286046976.8,N
1458810875.0,286046977.7,N
1458810875.9,286046977.7,N
1458810895.8,286046979.1,N
1458810915.6,286046981.5,N
1458810935.4,286046983.9,N
1458810955.3,286046986.7,N
1458810975.1,286046985.8,N
1458810976.0,286046985.8,N
1458810995.8,286046987.9,N
1458811015.6,286046989.5,N
1458811035.5,286046989.3,N
1458811055.3,286046991.1,N
1458811075.1,286046988.6,N
1458811095.9,286046986.9,N
1458811115.7,286046991.6,N
1458811135.5,286046993.2,N
1458811155.4,286046992.9,N
1458811175.2,286046990.3,N
1458811195.0,286046989.1,N
1458811195.9,286046989.1,N
1458811215.8,286046983.9,N
1458811235.6,286046987.9,N
1458811255.4,286046990.1,N
1458811275.3,286046992.9,N
1458811295.1,286046989.1,N
1458811296.0,286046989.1,N
1458811315.8,286046989.0,N
1458811335.7,286046986.9,N
1458811355.5,286046989.5,N
1458811375.3,286046990.2,N
1458811395.1,286046992.6,N
1458811415.9,286046990.8,N
1458811435.7,286046990.2,Y
1458811455.5,286047004.4,P
1458811475.4,286046999.9,N
1458811495.2,286047004.4,N
1458811515.0,286047007.5,N
1458811515.9,286047007.5,N
1458811535.8,286047006.7,N
1458811555.6,286047005.2,N
1458811575.4,286047008.6,N
1458811595.3,286047008.6,N
1458811615.1,286047009.5,N
1458811616.0,286047009.5,N
1458811635.8,286047010.2,N
1458811655.7,286047007.9,N
1458811675.5,286047005.2,N
1458811695.3,286047007.4,N
1458811715.2,286047005.5,N
1458811735.9,286047004.5,N
1458811755.7,286047005.3,N
1458811775.6,286047003.0,N
1458811795.4,286047001.7,N
1458811815.2,286047003.0,N
1458811835.0,286047002.6,N
1458811835.9,286047002.6,N
1458811855.8,286047002.3,N
1458811875.6,286046999.8,N
1458811895.4,286047003.8,N
1458811915.3,286047000.4,N
1458811935.1,286046999.5,N
1458811955.8,286046999.4,N
1458811975.7,286046998.3,N
1458811995.5,286046995.4,N
1458812015.3,286046995.5,N
1458812035.2,286046996.0,N
1458812055.9,286046994.8,N
1458812075.7,286046989.2,N
1458812095.6,286046988.8,N
1458812115.4,286046991.1,N
1458812135.2,286046993.1,N
1458812155.1,286046989.6,N
1458812156.0,286046989.6,N
1458812175.8,286046986.9,N
1458812195.6,286046986.4,N
1458812215.5,286046985.1,N
1458812235.3,286046985.7,N
1458812255.1,286046985.9,N
1458812275.8,286046988.1,N
1458812295.7,286046990.0,N
1458812315.5,286046991.0,N
1458812335.3,286046990.4,N
1458812355.2,286046991.4,N
1458812375.9,286046987.3,N
1458812395.7,286046991.0,N
1458812415.6,286046991.8,N
1458812435.4,286046992.5,N
1458812455.2,286046992.4,N
1458812475.1,286046988.5,N
1458812476.0,286046988.5,N
1458812495.8,286046992.2,N
1458812515.6,286046993.7,N
1458812535.5,286046995.2,N
1458812555.3,286046995.0,N
1458812575.1,286046994.3,N
1458812595.9,286046987.4,Y
1458812615.7,286046998.5,P
1458812635.5,286047001.3,N
1458812655.4,286047003.1,N
1458812675.2,286047003.5,N
1458812695.0,286047001.0,N
1458812695.9,286047001.0,N
1458812715.7,286046999.9,N
1458812735.6,286046999.6,N
1458812755.4,286046997.1,N
1458812775.2,286046995.3,N
1458812795.1,286046998.6,N
1458812796.0,286046998.6,N
1458812815.8,286047003.6,N
1458812835.6,286047002.4,N
1458812855.5,286046998.3,N
1458812875.3,286046998.8,N
1458812895.1,286046997.1,N
1458812915.9,286047000.7,N
1458812935.7,286046998.5,N
1458812955.5,286046996.5,N
1458812975.4,286046999.6,N
1458812995.2,286047001.0,N
1458813015.0,286047003.9,N
1458813015.9,286047003.9,N
1458813035.7,286047002.0,N
1458813055.6,286047004.4,N
1458813075.4,286047004.9,N
1458813095.2,286047004.5,N
1458813115.1,286047003.1,N
1458813116.0,286047003.1,N
1458813135.8,286047002.9,N
1458813155.6,286047004.9,N
1458813175.5,286047008.5,Y
1458813195.3,286047008.8,P
1458813215.1,286047004.2,N
1458813235.9,286047003.7,N
1458813255.7,286047003.8,N
1458813275.5,286047002.0,N
1458813295.4,286047001.8,N
1458813315.2,286047000.9,N
1458813335.0,286046999.6,N
1458813335.9,286046999.6,N
1458813355.8,286046997.4,N
1458813375.6,286046997.6,N
1458813395.4,286046997.4,N
1458813415.2,286046998.2,N
1458813435.1,286046996.8,N
1458813436.0,286046996.8,N
1458813455.8,286047002.7,N
1458813475.6,286046999.8,N
1458813495.5,286046999.6,N
1458813515.3,286046996.7,N
1458813535.1,286046993.5,N
1458813555.9,286046992.1,N
1458813575.7,286046991.2,N
1458813595.5,286046991.6,N
